User: anonymous   Login
Location: Ch�teau-Arnoux
(44.0814°N, 6.0027°E)
Time: 08:42:49
(UTC+00:00)
Language:

Shenzhou-11 Module - Orbit

View from above orbital plane
View from above orbital plane
View from above satellite
View from above satellite

Ground track
Ground track

The orbit data is extracted from the following two-line orbital elements,

1 41868U 16061G   20025.29565229 +.00023218 +00000-0 +85176-4 0  9997
2 41868 042.7917 318.7988 0010289 196.3469 299.3061 15.87745184183081
Epoch (UTC): 25 January 2020 07:05:44
Eccentricity: 0.0010289
inclination: 42.7917°
perigee height: 302 km
apogee height: 315 km
right ascension of ascending node: 318.7988°
argument of perigee: 196.3469°
revolutions per day: 15.87745184
mean anomaly at epoch: 299.3061°
orbit number at epoch: 18308

The dashed part of the orbit path shows where the satellite is in the earth's shadow,  

DLR